User: anonymous   Login
Location: Oshawa
(43.9000°N, 78.8670°W)
Time: 07:11:46
(UTC-05:00)
Language:

Thor Agena Rocket - Orbit

View from above orbital plane
View from above orbital plane
View from above satellite
View from above satellite

Ground track
Ground track

The orbit data is extracted from the following two-line orbital elements,

1 00733U 64002A   14331.99722510  .00000320  00000-0  13625-3 0  3924
2 00733 099.0243 097.7919 0033846 009.5584 103.3058 14.31960480648889
Epoch (UTC): 27 November 2014 23:56:00
Eccentricity: 0.0033846
inclination: 99.0243°
perigee height: 761 km
apogee height: 809 km
right ascension of ascending node: 97.7919°
argument of perigee: 9.5584°
revolutions per day: 14.31960480
mean anomaly at epoch: 103.3058°
orbit number at epoch: 64888

The dashed part of the orbit path shows where the satellite is in the earth's shadow,  

DLR